Probability
0 0 0 0 0 0 0 0 0 0 0 0 0 0 0 0 0 0 0 0 0 0 0 0 0 0 0 0 0 0 0 0 0 0 0 0 0 0 0 0 0 0 0 0
0 0 0 0 0 0 0 0 0 0 0 0 0 0 0 0 0 0 0 0 0 0 0 0 0 0 0 0 0 0 0 0 0 0 0 0 0 0 0 0 0 0 0 0
0 0 0 0 0 0 0 0 0 0 0 0 0 0 0 0 0 0 0 0 0 0 0 0 0 0 0 0 0 0 0 0 0 0 0 0 0 0 0 0 0 0 0 0
0 0 0 0 0 0 0 0 0 0 0 0 0 0 0 0 0 0 0 0 0 0 0 0 0 0 0 0 0 0 0 0 0 0 0 0 0 0 0 0 0 0 0 0
0 0 0 0 0 0 0 0 0 0 0 0 0 0 0 0 0 0 0 0 0 0 0 0 0 0 0 0 0 0 0 0 0 0 0 0 0 0 0 0 0 0 0 0
0 0 0 0 0 0 0 0 0 0 0 0 0 0 0 0 0 0 0 0 0 0 0 0 0 0 0 0 0 0 0 0 0 0 0 0 0 0 0 0 0 0 0 0
0 0 0 0 0 0 0 0 0 0 0 0 0 0 0 0 0 0 0 0 0 0 0 0 0 0 0 0 0 0 0 0 0 0 0 0 0 0 0 0 0 0 0 0
0 0 0 0 0 0 0 0 0 0 0 0 0 0 0 0 0 0 0 0 0 0 0 0 0 0 0 0 0 0 0 0 0 0 0 0 0 0 0 0 0 0 0 0
0 0 0 0 0 0 0 0 0 0 0 0 0 0 0 0 0 0 0 0 0 0 0 0 0 0 0 0 0 0 0 0 0 0 0 0 0 0 0 0 0 0 0 0
0 0 0 0 0 0 0 0 0 0 0 0 0 0 0 0 0 0 0 0 0 0 0 0 0 0 0 0 0 0 0 0 0 0 0 0 0 0 0 0 0 0 0 0
0 0 0 0 0 0 0 0 0 0 0 0 0 0 0 0 0 0 0 0 0 0 0 0 0 0 0 0 0 0 0 0 0 0 0 0 0 0 0 0 0 0 0 0
0 0 0 0 0 0 0 0 0 0 0 0 0 0 0 0 0 0 0 0 0 0 0 0 0 0 0 0 0 0 0 0 0 0 0 0 0 0 0 0 0 0 0 0
0 0 0 0 0 0 0 0 0 0 0 0 0 0 0 0 0 0 0 0 0 0 0 0 0 0 0 0 0 0 0 0 0 0 0 0 0 0 0 0 0 0 0 0
0 0 0 0 0 0 0 0 0 0 0 0 0 0 0 0 0 0 0 0 0 0 0 0 0 0 0 0 0 0 0 0 0 0 0 0 0 0 0 0 0 0 0 0
0 0 0 0 0 0 0 0 0 0 0 0 0 0 0 0 0 0 0 0 0 0 0 0 0 0 0 0 0 0 0 0 0 0 0 0 0 0 0 0 0 0 0 0
0 0 0 0 0 0 0 0 0 0 0 0 0 0 0 0 0 0 0 0 0 0 0 0 0 0 0 0 0 0 0 0 0 0 0 0 0 0 0 0 0 0 0 0
0 0 0 0 0 0 0 0 0 0 0 0 0 0 0 0 0 0 0 0 0 0 0 0 0 0 0 0 0 0 0 0 0 0 0 0 0 0 0 0 0 0 0 0
0 0 0 0 0 0 0 0 0 0 0 0 0 0 0 0 0 0 0 0 0 0 0 0 0 0 0 0 0 0 0 0 0 0 0 0 0 0 0 0 0 0 0 0
0 0 0 0 0 0 0 0 0 0 0 0 0 0 0 0 0 0 0 0 0 0 0 0 0 0 0 0 0 0 0 0 0 0 0 0 0 0 0 0 0 0 0 0
0 0 0 0 0 0 0 0 0 0 0 0 0 0 0 0 0 0 0 0 0 0 0 0 0 0 0 0 0 0 0 0 0 0 0 0 0 0 0 0 0 0 0 0
0 0 0 0 0 0 0 0 0 0 0 0 0 0 0 0 0 0 0 0 0 0 0 0 0 0 0 0 0 0 0 0 0 0 0 0 0 0 0 0 0 0 0 0
0 0 0 0 0 0 0 0 0 0 0 0 0 0 0 0 0 0 0 0 0 0 0 0 0 0 0 0 0 0 0 0 0 0 0 0 0 0 0 0 0 0 0 0
0 0 0 0 0 0 0 0 0 0 0 0 0 0 0 0 0 0 0 0 0 0 0 0 0 0 0 0 0 0 0 0 0 0 0 0 0 0 0 0 0 0 0 0
0 0 0 0 0 0 0 0 0 0 0 0 0 0 0 0 0 0 0 0 0 0 0 0 0 0 0 0 0 0 0 0 0 0 0 0 0 0 0 0 0 0 0 0
0 0 0 0 0 0 0 0 0 0 0 0 0 0 0 0 0 0 0 0 0 0 0 0 0 0 0 0 0 0 0 0 0 0 0 0 0 0 0 0 0 0 0 0
0 0 0 0 0 0 0 0 0 0 0 0 0 0 0 0 0 0 0 0 0 0 0 0 0 0 0 0 0 0 0 0 0 0 0 0 0 0 0 0 0 0 0 0
0 0 0 0 0 0 0 0 0 0 0 0 0 0 0 0 0 0 0 0 0 0 0 0 0 0 0 0 0 0 0 0 0 0 0 0 0 0 0 0 0 0 0 0
Wind_Speed
6 5 4 6 6 6 7 7 7 7 8 9 7 7 6 6 6 6 6 6 6 6 6 5 5 5 5 5 5 4 3 3 3 3 3 2 2 2 1 1 1 2 2 2
4 3 4 6 8 8 8 8 9 10 10 7 7 6 5 5 6 6 7 7 7 7 7 7 6 6 6 5 5 4 3 3 3 2 2 2 2 2 1 1 1 1 1 2
2 2 3 5 5 7 5 5 5 7 6 6 7 7 6 6 6 6 7 8 8 7 7 7 7 7 6 5 4 3 2 3 2 2 2 2 2 2 1 1 1 1 1 1
2 1 5 0 1 3 4 4 4 5 5 6 7 8 6 5 5 7 8 8 8 7 7 7 7 7 6 4 3 2 2 2 2 2 2 2 2 2 2 2 1 2 2 2
2 3 6 2 1 2 3 3 2 4 6 7 8 7 3 3 5 7 8 8 7 7 7 7 6 5 4 3 3 2 2 2 2 2 2 2 2 2 2 2 2 2 2 2
3 4 5 1 1 0 2 3 1 3 5 6 6 4 3 6 8 8 8 7 7 6 6 6 6 5 3 2 2 3 3 3 3 2 2 2 2 2 2 2 2 2 2 2
5 5 5 1 0 2 3 2 2 3 4 4 4 5 7 9 9 8 7 7 6 5 5 5 5 4 3 3 3 3 3 2 2 2 2 2 2 2 2 1 2 2 2 2
5 6 5 2 2 2 2 3 3 3 4 5 6 7 8 8 8 7 6 6 5 4 5 5 5 4 3 4 3 3 2 2 2 2 2 2 2 2 2 2 2 2 2 3
5 3 1 2 2 1 2 3 3 4 5 5 6 7 7 7 7 7 6 5 5 4 4 5 4 4 3 4 3 2 2 2 2 2 2 2 2 2 2 2 2 2 2 2
5 5 4 3 3 4 3 4 5 5 5 5 6 7 7 7 6 6 5 5 4 4 4 5 5 4 4 4 3 2 2 2 2 2 3 3 2 2 2 2 2 2 2 3
6 5 4 5 5 4 4 4 5 5 5 5 6 7 7 6 6 5 4 4 3 4 4 5 5 5 4 4 3 2 2 2 2 2 2 2 2 2 3 3 3 3 3 3
5 4 4 4 3 3 4 4 5 5 6 5 5 6 6 5 5 4 4 4 3 4 4 5 5 5 4 3 3 2 2 2 1 1 2 2 2 2 3 3 5 5 5 4
5 3 3 4 3 2 3 4 4 5 5 6 5 5 5 4 4 4 4 4 4 4 4 4 4 4 4 3 2 2 2 2 2 1 2 2 2 2 2 3 4 4 5 5
4 3 3 3 4 4 3 3 3 4 3 4 4 4 3 3 4 4 4 4 4 4 4 4 4 4 4 3 2 2 2 2 2 1 1 1 1 2 2 3 3 3 4 5
4 4 4 3 3 2 2 2 2 3 3 3 3 3 3 3 3 4 4 4 3 3 3 3 4 4 4 3 2 2 2 1 1 1 1 1 2 2 2 2 3 3 3 3
3 3 3 4 3 3 2 2 3 4 4 4 4 3 3 3 3 3 3 3 3 3 4 3 3 4 3 2 2 1 1 2 2 1 1 1 1 1 2 2 2 2 3 3
3 4 4 4 4 4 4 4 4 4 4 4 4 3 3 2 2 3 3 3 3 3 3 3 3 3 3 2 2 1 1 1 1 1 1 1 1 1 2 2 2 2 2 3
5 5 5 5 5 4 4 4 3 4 4 4 3 2 2 2 3 3 3 3 3 2 3 3 3 3 2 2 2 1 1 1 1 1 1 1 2 2 2 2 2 3 2 3
4 4 4 4 4 4 4 4 3 3 3 2 2 2 2 2 2 3 3 2 2 3 3 3 4 3 3 3 2 1 1 1 1 1 1 1 2 2 2 2 2 2 2 2
4 3 3 3 3 3 3 3 2 2 2 2 1 1 2 2 2 2 2 2 2 2 3 3 3 3 2 2 2 1 1 1 1 1 1 1 1 2 2 2 2 2 2 2
4 3 3 3 2 2 2 2 2 2 2 1 1 2 2 2 2 2 2 2 2 3 3 3 2 2 2 2 2 1 1 1 1 1 1 1 1 1 2 2 2 2 2 3
3 3 2 2 2 2 1 1 2 2 2 1 1 1 1 2 2 2 2 2 3 4 3 2 2 2 2 2 1 1 1 1 1 1 1 1 1 2 2 2 2 2 2 3
2 2 2 2 2 2 1 1 2 2 2 2 2 2 2 2 2 2 2 2 2 4 3 2 3 3 3 1 1 1 1 1 1 1 1 2 2 2 2 2 2 3 3 3
2 2 2 1 1 1 2 2 1 1 2 2 2 2 2 2 2 2 2 3 4 4 3 3 4 3 3 1 1 1 1 1 1 1 1 2 2 2 2 2 2 3 3 3
2 2 2 2 3 2 2 1 1 1 1 1 1 1 1 2 2 2 2 2 3 3 2 3 4 3 2 1 1 1 1 1 1 1 1 2 2 2 2 2 2 3 3 3
2 2 2 3 2 2 1 1 1 1 1 1 1 1 1 1 1 2 1 2 2 3 2 2 2 2 1 1 1 1 1 2 2 1 2 2 2 2 2 2 3 3 3 3
2 2 1 1 1 2 2 2 2 2 2 2 2 1 1 1 1 1 1 1 1 2 2 2 1 1 1 1 1 1 1 1 1 1 2 2 2 2 2 3 3 3 3 3
Wind_Direction
269 272 254 246 242 227 226 237 250 270 279 296 319 317 317 323 326 323 325 325 325 321 321 323 325 325 323 321 324 317 309 311 319 324 333 333 312 304 296 273 263 252 240 244
257 244 253 262 257 241 237 241 250 270 281 312 318 314 314 319 322 321 321 320 320 317 317 316 314 313 312 312 317 312 306 312 324 330 344 339 323 318 324 339 336 309 280 263
250 313 278 260 239 217 218 230 235 254 282 319 319 321 313 314 317 317 318 317 316 314 312 310 308 305 302 304 308 308 316 325 327 331 336 329 326 324 326 329 348 336 321 301
281 290 243 294 60 200 212 248 250 270 300 315 314 313 304 308 312 316 316 314 312 312 314 315 311 306 305 311 317 327 332 333 333 327 323 322 322 324 332 341 348 334 329 323
218 258 269 261 197 185 213 259 261 269 290 309 317 304 293 331 325 317 313 309 307 309 311 314 312 308 306 316 323 330 330 341 344 336 338 339 343 344 343 345 343 339 333 331
207 246 255 7 89 85 208 242 83 295 302 314 316 304 332 343 325 319 317 315 316 318 322 324 326 328 334 344 348 344 342 345 346 349 349 349 354 350 341 326 328 338 341 337
224 243 266 352 307 196 225 321 350 304 301 300 291 294 310 315 316 317 317 319 322 323 328 328 329 334 343 347 340 335 339 350 355 353 354 354 353 348 350 343 347 354 347 338
203 224 247 98 142 202 303 346 314 303 301 294 291 298 303 310 315 318 320 323 326 328 330 331 335 338 339 336 335 340 346 358 5 7 4 356 1 357 356 356 4 358 356 346
214 231 29 153 200 255 299 286 295 296 296 290 289 294 304 308 312 314 315 319 325 326 327 335 342 340 332 328 334 344 353 360 4 8 6 1 3 359 351 347 351 346 344 340
247 254 255 244 249 270 280 280 289 288 286 280 284 291 299 304 309 313 316 318 323 327 329 331 337 337 328 327 333 340 347 353 2 7 9 6 355 352 349 343 337 332 331 332
246 262 272 248 253 271 282 289 291 292 288 285 287 290 293 298 302 306 309 312 318 321 321 324 331 333 338 339 339 336 341 352 353 1 4 1 360 355 347 340 332 322 324 323
241 235 234 262 272 271 269 282 286 292 295 294 288 287 293 296 301 306 309 314 317 323 324 324 328 328 333 334 331 329 338 348 347 351 352 350 355 3 20 359 355 348 341 329
249 264 261 274 281 272 275 283 287 288 288 294 297 294 295 296 305 311 311 316 318 321 322 325 327 328 333 334 330 328 326 330 337 340 340 344 348 348 349 358 1 4 360 349
234 233 249 255 270 284 283 285 292 297 298 300 301 303 301 301 310 318 320 319 319 322 326 328 329 332 335 334 332 329 324 331 328 327 330 335 337 331 328 330 334 343 357 2
234 241 249 267 270 275 284 289 302 309 314 316 312 309 310 310 314 318 321 324 321 324 329 330 332 335 339 336 336 335 327 325 327 334 332 327 324 320 322 321 321 326 334 350
243 246 240 243 254 266 275 278 282 291 300 306 310 312 310 308 310 316 324 329 324 322 323 325 329 335 337 332 328 323 328 345 341 332 326 322 317 314 314 313 314 320 326 335
201 224 233 244 249 257 262 264 267 275 287 295 302 307 311 314 319 330 336 332 318 314 319 322 326 333 334 328 315 307 308 322 334 329 324 313 304 298 298 301 308 313 319 329
229 233 230 228 232 243 259 268 271 278 282 290 300 306 312 311 312 319 323 322 323 329 333 329 329 335 331 320 308 304 304 314 313 306 305 301 299 295 297 300 307 311 319 327
225 229 232 234 235 234 243 256 266 275 285 289 287 287 297 300 300 306 313 316 315 323 334 332 332 334 331 325 320 297 297 300 303 306 302 296 300 300 298 300 303 309 315 319
222 223 224 232 234 232 241 253 264 273 279 276 276 289 301 303 303 308 311 303 307 315 316 314 320 324 324 321 325 306 292 288 292 297 296 292 296 301 300 301 305 308 309 312
213 212 215 223 233 241 243 245 249 263 276 261 248 265 282 299 307 301 293 304 325 330 320 319 319 314 313 313 310 300 289 283 285 288 287 289 294 301 302 301 301 304 307 308
210 207 214 218 226 250 257 245 238 243 253 256 262 268 276 291 295 292 284 291 313 325 326 321 318 317 322 322 320 310 297 286 285 288 284 282 284 289 293 296 297 301 301 302
207 208 210 215 223 239 262 249 237 234 236 243 247 249 256 273 276 273 288 309 313 319 324 322 327 330 331 340 327 306 299 297 297 295 291 287 284 284 287 291 295 297 298 302
204 206 211 207 186 199 232 251 253 254 253 258 256 253 251 263 273 271 288 301 314 320 323 325 332 338 347 349 331 316 305 297 293 291 290 289 286 287 288 290 293 296 297 300
201 199 190 189 203 219 227 231 240 246 253 264 277 269 254 258 266 284 295 296 309 323 325 330 336 341 347 332 327 318 306 294 294 291 284 285 288 290 290 292 293 295 296 296
198 206 213 223 230 226 215 213 226 238 246 264 285 284 284 285 279 281 288 297 305 320 326 324 326 331 329 325 321 312 303 298 299 300 296 293 287 285 285 288 291 289 290 291
197 200 207 225 222 213 215 220 228 236 236 243 267 278 286 289 284 290 296 303 315 321 318 315 316 317 317 318 313 306 298 296 295 293 289 286 284 282 284 286 287 289 289 290